• în România
  • Lista ţărilor
  • Pe 7 zile
  • Temperatura apei
  • Hartă satelitară
  • Meteo pe hartă
  • Widget-uri
  • user-avatar
    Intrare

    Meteo pe oră la Bekescsaba

    Astăzi, 24 Octombrie, Miercuri

    Timp Temperatura Precipitaţii Vânt Presiune Umiditate
    00:00 +12°C° 0.3 mm 7 m/s 750 mmHg 59%
    01:00 +11°C° 0.3 mm 7 m/s 750 mmHg 60%
    02:00 +11°C° 0.5 mm 7 m/s 749 mmHg 62%
    03:00 +11°C° 0.5 mm 7 m/s 748 mmHg 63%
    04:00 +11°C° 0.5 mm 8 m/s 747 mmHg 65%
    05:00 +11°C° 0.3 mm 8 m/s 747 mmHg 64%
    06:00 +11°C° 0.3 mm 8 m/s 746 mmHg 64%
    07:00 +12°C° 0.3 mm 9 m/s 746 mmHg 63%
    08:00 +12°C° 0.7 mm 9 m/s 746 mmHg 64%
    09:00 +12°C° 0.7 mm 9 m/s 745 mmHg 65%
    10:00 +12°C° 0.7 mm 9 m/s 745 mmHg 66%
    11:00 +12°C° 0.3 mm 9 m/s 745 mmHg 58%
    12:00 +12°C° 0.3 mm 10 m/s 746 mmHg 50%
    13:00 +12°C° 0.3 mm 10 m/s 746 mmHg 41%
    14:00 +12°C° 0 mm 9 m/s 746 mmHg 39%
    15:00 +11°C° 0 mm 8 m/s 747 mmHg 37%
    16:00 +11°C° 0 mm 7 m/s 747 mmHg 35%
    17:00 +10°C° 0 mm 7 m/s 748 mmHg 38%
    18:00 +9°C° 0 mm 6 m/s 749 mmHg 41%
    19:00 +8°C° 0 mm 6 m/s 750 mmHg 44%
    20:00 +7°C° 0 mm 5 m/s 751 mmHg 46%
    21:00 +7°C° 0 mm 5 m/s 751 mmHg 48%
    22:00 +6°C° 0 mm 5 m/s 752 mmHg 50%
    23:00 +6°C° 0 mm 5 m/s 752 mmHg 50%

    Mâine, 25 Octombrie, Joi

    Timp Temperatura Precipitaţii Vânt Presiune Umiditate
    00:00 +5°C° 0 mm 5 m/s 753 mmHg 51%
    01:00 +5°C° 0 mm 5 m/s 753 mmHg 52%
    02:00 +5°C° 0 mm 4 m/s 753 mmHg 55%
    03:00 +4°C° 0 mm 4 m/s 753 mmHg 57%
    04:00 +4°C° 0 mm 3 m/s 754 mmHg 59%
    05:00 +4°C° 0 mm 3 m/s 754 mmHg 61%
    06:00 +4°C° 0 mm 3 m/s 754 mmHg 63%
    07:00 +4°C° 0 mm 3 m/s 755 mmHg 65%
    08:00 +5°C° 0 mm 3 m/s 755 mmHg 60%
    09:00 +7°C° 0 mm 4 m/s 755 mmHg 55%
    10:00 +8°C° 0 mm 4 m/s 755 mmHg 49%
    11:00 +8°C° 0.2 mm 4 m/s 755 mmHg 56%
    12:00 +7°C° 0.2 mm 5 m/s 754 mmHg 63%
    13:00 +7°C° 0.2 mm 5 m/s 754 mmHg 70%
    14:00 +8°C° 0.1 mm 5 m/s 753 mmHg 70%
    15:00 +8°C° 0.1 mm 5 m/s 753 mmHg 70%
    16:00 +9°C° 0.1 mm 5 m/s 753 mmHg 71%
    17:00 +9°C° 0.1 mm 5 m/s 752 mmHg 71%
    18:00 +10°C° 0.1 mm 5 m/s 752 mmHg 72%
    19:00 +10°C° 0.1 mm 5 m/s 752 mmHg 72%
    20:00 +10°C° 0 mm 5 m/s 752 mmHg 73%
    21:00 +10°C° 0 mm 5 m/s 752 mmHg 74%
    22:00 +10°C° 0 mm 5 m/s 752 mmHg 75%
    23:00 +10°C° 0 mm 5 m/s 752 mmHg 77%

    Poimâine, 26 Octombrie, Vineri

    Timp Temperatura Precipitaţii Vânt Presiune Umiditate
    00:00 +10°C° 0 mm 4 m/s 752 mmHg 79%
    01:00 +10°C° 0 mm 4 m/s 752 mmHg 81%
    02:00 +10°C° 0 mm 4 m/s 752 mmHg 83%
    03:00 +9°C° 0 mm 3 m/s 752 mmHg 84%
    04:00 +9°C° 0 mm 3 m/s 752 mmHg 86%
    05:00 +9°C° 0 mm 3 m/s 752 mmHg 86%
    06:00 +9°C° 0 mm 3 m/s 753 mmHg 86%
    07:00 +9°C° 0 mm 3 m/s 753 mmHg 87%
    08:00 +11°C° 0 mm 3 m/s 753 mmHg 78%
    09:00 +12°C° 0 mm 3 m/s 753 mmHg 70%
    10:00 +14°C° 0 mm 4 m/s 753 mmHg 61%
    11:00 +15°C° 0 mm 4 m/s 753 mmHg 57%
    12:00 +17°C° 0 mm 4 m/s 752 mmHg 53%
    13:00 +18°C° 0 mm 4 m/s 752 mmHg 48%
    14:00 +18°C° 0 mm 3 m/s 752 mmHg 50%
    15:00 +17°C° 0 mm 3 m/s 751 mmHg 52%
    16:00 +17°C° 0 mm 2 m/s 751 mmHg 53%
    17:00 +17°C° 0 mm 3 m/s 751 mmHg 54%
    18:00 +17°C° 0 mm 4 m/s 751 mmHg 55%
    19:00 +15°C° 0 mm 4 m/s 751 mmHg 56%
    20:00 +15°C° 0 mm 4 m/s 751 mmHg 56%
    21:00 +15°C° 0 mm 4 m/s 751 mmHg 57%
    22:00 +15°C° 0 mm 5 m/s 750 mmHg 57%
    23:00 +15°C° 0.2 mm 4 m/s 750 mmHg 60%

    27 Octombrie, Sâmbătă

    Timp Temperatura Precipitaţii Vânt Presiune Umiditate
    00:00 +15°C° 0.2 mm 4 m/s 750 mmHg 62%
    01:00 +15°C° 0.2 mm 4 m/s 750 mmHg 65%
    02:00 +14°C° 0.5 mm 4 m/s 750 mmHg 68%
    03:00 +14°C° 0.5 mm 4 m/s 749 mmHg 71%
    04:00 +14°C° 0.5 mm 4 m/s 749 mmHg 74%
    05:00 +13°C° 0.5 mm 4 m/s 749 mmHg 76%
    06:00 +13°C° 0.5 mm 4 m/s 749 mmHg 78%
    07:00 +13°C° 0.5 mm 4 m/s 749 mmHg 80%
    08:00 +14°C° 0.2 mm 3 m/s 749 mmHg 78%
    09:00 +14°C° 0.2 mm 3 m/s 750 mmHg 76%
    10:00 +14°C° 0.2 mm 3 m/s 750 mmHg 73%
    11:00 +14°C° 0 mm 3 m/s 750 mmHg 70%
    12:00 +16°C° 0 mm 3 m/s 749 mmHg 67%
    13:00 +16°C° 0 mm 2 m/s 749 mmHg 63%
    14:00 +14°C° 0 mm 3 m/s 749 mmHg 65%
    15:00 +14°C° 0 mm 3 m/s 749 mmHg 66%
    16:00 +13°C° 0 mm 4 m/s 748 mmHg 67%
    17:00 +12°C° 0.2 mm 3 m/s 748 mmHg 71%
    18:00 +12°C° 0.2 mm 3 m/s 748 mmHg 76%
    19:00 +11°C° 0.2 mm 3 m/s 749 mmHg 80%
    20:00 +11°C° 0.1 mm 3 m/s 749 mmHg 81%
    21:00 +12°C° 0.1 mm 2 m/s 749 mmHg 83%
    22:00 +12°C° 0.1 mm 2 m/s 749 mmHg 85%
    23:00 +12°C° 0.1 mm 2 m/s 749 mmHg 85%

    28 Octombrie, Duminică

    Timp Temperatura Precipitaţii Vânt Presiune Umiditate
    00:00 +13°C° 0.1 mm 2 m/s 749 mmHg 84%
    01:00 +13°C° 0.1 mm 2 m/s 749 mmHg 84%
    02:00 +13°C° 0 mm 2 m/s 749 mmHg 83%
    03:00 +13°C° 0 mm 2 m/s 749 mmHg 83%
    04:00 +13°C° 0 mm 3 m/s 749 mmHg 82%
    05:00 +13°C° 0 mm 3 m/s 749 mmHg 81%
    06:00 +13°C° 0 mm 3 m/s 749 mmHg 80%
    07:00 +13°C° 0 mm 3 m/s 749 mmHg 79%
    08:00 +15°C° 0 mm 4 m/s 749 mmHg 72%
    09:00 +17°C° 0 mm 5 m/s 749 mmHg 65%
    10:00 +20°C° 0 mm 5 m/s 749 mmHg 58%
    11:00 +21°C° 0 mm 6 m/s 749 mmHg 53%
    12:00 +23°C° 0 mm 7 m/s 749 mmHg 48%
    13:00 +24°C° 0 mm 8 m/s 749 mmHg 42%
    14:00 +23°C° 0 mm 7 m/s 749 mmHg 44%
    15:00 +22°C° 0 mm 6 m/s 748 mmHg 45%
    16:00 +22°C° 0 mm 5 m/s 748 mmHg 46%
    17:00 +21°C° 0 mm 5 m/s 748 mmHg 48%
    18:00 +20°C° 0 mm 5 m/s 748 mmHg 49%
    19:00 +19°C° 0 mm 5 m/s 749 mmHg 51%
    20:00 +19°C° 0 mm 5 m/s 749 mmHg 51%
    21:00 +19°C° 0 mm 5 m/s 749 mmHg 52%
    22:00 +17°C° 0 mm 5 m/s 749 mmHg 52%
    23:00 +17°C° 0 mm 5 m/s 748 mmHg 52%

    29 Octombrie, Luni

    Timp Temperatura Precipitaţii Vânt Presiune Umiditate
    00:00 +17°C° 0 mm 5 m/s 748 mmHg 51%
    01:00 +17°C° 0 mm 5 m/s 748 mmHg 50%
    02:00 +17°C° 0 mm 5 m/s 748 mmHg 52%
    03:00 +17°C° 0 mm 5 m/s 747 mmHg 53%
    04:00 +17°C° 0 mm 5 m/s 747 mmHg 55%
    05:00 +17°C° 0 mm 6 m/s 747 mmHg 55%
    06:00 +17°C° 0 mm 6 m/s 747 mmHg 55%
    07:00 +17°C° 0 mm 7 m/s 747 mmHg 55%
    08:00 +18°C° 0.1 mm 7 m/s 747 mmHg 56%
    09:00 +18°C° 0.1 mm 8 m/s 747 mmHg 56%
    10:00 +18°C° 0.1 mm 9 m/s 747 mmHg 57%
    11:00 +18°C° 0.6 mm 8 m/s 747 mmHg 58%
    12:00 +18°C° 0.6 mm 8 m/s 746 mmHg 59%
    13:00 +18°C° 0.6 mm 8 m/s 746 mmHg 61%
    14:00 +18°C° 0.5 mm 7 m/s 746 mmHg 63%
    15:00 +19°C° 0.5 mm 6 m/s 746 mmHg 64%
    16:00 +17°C° 0.5 mm 5 m/s 746 mmHg 66%
    17:00 +17°C° 0 mm 6 m/s 746 mmHg 66%
    18:00 +17°C° 0 mm 6 m/s 746 mmHg 65%
    19:00 +17°C° 0 mm 6 m/s 746 mmHg 65%
    20:00 +17°C° 0 mm 6 m/s 746 mmHg 65%
    21:00 +17°C° 0 mm 6 m/s 747 mmHg 65%
    22:00 +17°C° 0 mm 6 m/s 747 mmHg 65%
    23:00 +16°C° 0 mm 6 m/s 747 mmHg 66%

    30 Octombrie, Marţi

    Timp Temperatura Precipitaţii Vânt Presiune Umiditate
    00:00 +16°C° 0 mm 6 m/s 746 mmHg 67%
    01:00 +16°C° 0 mm 6 m/s 746 mmHg 67%
    02:00 +16°C° 0 mm 6 m/s 746 mmHg 67%
    03:00 +16°C° 0 mm 6 m/s 746 mmHg 67%
    04:00 +16°C° 0 mm 5 m/s 746 mmHg 67%
    05:00 +16°C° 0.3 mm 5 m/s 746 mmHg 69%
    06:00 +16°C° 0.3 mm 5 m/s 746 mmHg 71%
    07:00 +16°C° 0.3 mm 5 m/s 746 mmHg 73%
    08:00 +15°C° 2.4 mm 4 m/s 746 mmHg 77%
    09:00 +15°C° 2.4 mm 4 m/s 746 mmHg 82%
    10:00 +16°C° 2.4 mm 3 m/s 746 mmHg 86%
    11:00 +16°C° 0.8 mm 3 m/s 745 mmHg 84%
    12:00 +17°C° 0.8 mm 3 m/s 744 mmHg 82%
    13:00 +17°C° 0.8 mm 3 m/s 744 mmHg 80%
    14:00 +17°C° 1.3 mm 3 m/s 743 mmHg 83%
    15:00 +16°C° 1.3 mm 3 m/s 743 mmHg 86%
    16:00 +16°C° 1.3 mm 3 m/s 742 mmHg 90%
    17:00 +16°C° 4.5 mm 3 m/s 742 mmHg 91%
    18:00 +14°C° 4.5 mm 3 m/s 742 mmHg 92%
    19:00 +14°C° 4.5 mm 3 m/s 742 mmHg 93%
    20:00 +14°C° 2.5 mm 4 m/s 742 mmHg 92%
    21:00 +14°C° 2.5 mm 5 m/s 743 mmHg 91%
    22:00 +14°C° 2.5 mm 6 m/s 743 mmHg 89%
    23:00 +14°C° 1.9 mm 6 m/s 744 mmHg 88%
    Arată mai mult